Newark, OH

5:29 AM EDT on August 31, 2016 (GMT -0400)
Newark Heath

Weather History for KVTA - December, 2013

Change the Weather History Date:

Wednesday, December 25, 2013

  Actual Average Record
Temperature  
Mean Temperature 21 °F -  
Max Temperature 30 °F 35 °F 66 °F (1964)
Min Temperature 12 °F 19 °F -9 °F (1983)
Degree Days  
Heating Degree Days 44    
Moisture  
Dew Point 14 °F    
Average Humidity 67    
Maximum Humidity 84    
Minimum Humidity 45    
Precipitation  
Precipitation 0.00 in - - ()
Sea Level Pressure  
Sea Level Pressure 30.38 in    
Wind  
Wind Speed 4 mph (South)    
Max Wind Speed 10 mph    
Max Gust Speed 20 mph    
Visibility 10 miles    
Events      
Averages and records for this station are not official NWS values.
T = Trace of Precipitation, MM = Missing Value Source: NWS Daily Summary

Daily Weather History Graph

Daily Weather History Graph

Search for Another Location

Airport or City:

Trip Planner

Search our weather history database for the weather conditions in past years. The results will help you decide how hot, cold, wet, or windy it might be!

Date:

Astronomy

Dec. 25, 2013 Rise Set
Actual Time 7:50 AM EST 5:10 PM EST
Civil Twilight 7:19 AM EST 5:40 PM EST
Nautical Twilight 6:45 AM EST 6:14 PM EST
Astronomical Twilight 6:12 AM EST 6:47 PM EST
Moon 12:16 AM EST (12/25) 12:13 PM EST (12/25)
Length of Visible Light 10h 21m
Length of Day
9h 20m
Waning Gibbous, 49% of the Moon is Illuminated
Dec 25
Waning Gibbous
Jan 1
New
Jan 7
First Quarter
Jan 15
Full
Jan 24
Last Quarter

Hourly Weather History & Observations

Time (EST) Temp. Windchill Dew Point Humidity Pressure Visibility Wind Dir Wind Speed Gust Speed Precip Events Conditions
12:54 AM 12.9 °F - 9.0 °F 84% 30.54 in 9.0 mi Calm Calm - N/A   Clear
1:54 AM 14.0 °F - 9.0 °F 80% 30.54 in 10.0 mi Calm Calm - N/A   Clear
2:54 AM 15.1 °F 9.4 °F 9.0 °F 77% 30.52 in 10.0 mi ESE 3.5 mph - N/A   Clear
3:54 AM 15.1 °F 9.4 °F 9.0 °F 77% 30.52 in 10.0 mi SE 3.5 mph - N/A   Clear
4:54 AM 16.0 °F - 10.0 °F 77% 30.51 in 10.0 mi Calm Calm - N/A   Partly Cloudy
5:54 AM 17.1 °F - 10.9 °F 77% 30.51 in 10.0 mi Calm Calm - N/A   Overcast
6:54 AM 19.0 °F 12.3 °F 12.0 °F 74% 30.50 in 10.0 mi South 4.6 mph - N/A   Overcast
7:54 AM 19.0 °F 7.5 °F 10.9 °F 71% 30.49 in 10.0 mi South 10.4 mph - N/A   Overcast
8:54 AM 19.0 °F 10.0 °F 10.9 °F 71% 30.49 in 10.0 mi South 6.9 mph - N/A   Overcast
9:54 AM 19.9 °F 11.1 °F 12.0 °F 71% 30.47 in 10.0 mi South 6.9 mph - N/A   Partly Cloudy
10:54 AM 23.0 °F 13.9 °F 12.9 °F 65% 30.45 in 10.0 mi SSE 8.1 mph - N/A   Partly Cloudy
11:54 AM 26.1 °F 17.6 °F 12.9 °F 58% 30.40 in 10.0 mi South 8.1 mph - N/A   Partly Cloudy
12:54 PM 28.0 °F 18.6 °F 12.0 °F 51% 30.35 in 10.0 mi South 10.4 mph - N/A   Mostly Cloudy
1:54 PM 30.0 °F 21.1 °F 10.9 °F 45% 30.31 in 10.0 mi South 10.4 mph 19.6 mph N/A   Overcast
2:54 PM 30.9 °F 22.8 °F 12.0 °F 46% 30.30 in 10.0 mi WSW 9.2 mph - N/A   Overcast
3:54 PM 30.9 °F 25.2 °F 12.9 °F 47% 30.28 in 10.0 mi SSW 5.8 mph - N/A   Overcast
4:54 PM 30.9 °F 26.2 °F 12.0 °F 46% 30.29 in 10.0 mi Variable 4.6 mph - N/A   Overcast
5:54 PM 30.9 °F 27.5 °F 16.0 °F 54% 30.29 in 10.0 mi SSE 3.5 mph - N/A   Overcast
6:54 PM 30.9 °F 27.5 °F 16.0 °F 54% 30.27 in 10.0 mi SSW 3.5 mph - N/A   Overcast
7:54 PM 30.0 °F 21.7 °F 21.0 °F 69% 30.27 in 10.0 mi SSW 9.2 mph - N/A   Overcast
8:54 PM 30.0 °F 21.7 °F 21.9 °F 72% 30.26 in 10.0 mi SSW 9.2 mph - N/A   Overcast
9:54 PM 30.0 °F 22.4 °F 23.0 °F 75% 30.25 in 10.0 mi South 8.1 mph - N/A   Overcast
10:54 PM 30.9 °F 22.8 °F 24.1 °F 76% 30.22 in 10.0 mi SSW 9.2 mph - N/A   Overcast
11:54 PM 30.9 °F 26.2 °F 25.0 °F 79% 30.19 in 10.0 mi South 4.6 mph - N/A   Overcast